Preview of NWS' New Version of Forecast
This preview is not operational and should not be used for support decisions.

Regional Weather Roundup (RWR)

Issued by National Weather Service (NWS)

                            
000
ASUS45 KCYS 242310
RWRWY 

WYOMING REGIONAL WEATHER ROUNDUP
NATIONAL WEATHER SERVICE CHEYENNE WY
500 PM MDT MON JUN 24 2019

NOTE:  "FAIR" INDICATES FEW OR NO CLOUDS BELOW 12,000 FEET
WITH NO SIGNIFICANT WEATHER AND/OR OBSTRUCTIONS TO VISIBILITY.

WYZ001-250000-
...YELLOWSTONE NATIONAL PARK...
  
CITY           SKY/WX    TMP DP  RH WIND       PRES   REMARKS
LK YELLOWSTONE   N/A     45  37  73 VRB6G20   30.06S                  
W YELLOWSTONE  NOT AVBL                                               

$$
WYZ002>013-054>058-071-098>099-250000-
...NORTHERN WYOMING...
  
CITY           SKY/WX    TMP DP  RH WIND       PRES   REMARKS
JACKSON        PTSUNNY   65  28  24 W23       30.00F                  
CODY           CLOUDY    64  42  44 N12       29.90R                  
GREYBULL       MOSUNNY   76  38  25 N10       29.81F                  
WORLAND        MOSUNNY   76  40  27 NE8       29.82F                  
SHERIDAN       SUNNY     71  44  37 VRB6      29.85F                  
BUFFALO        PTSUNNY   63  44  50 NW7       29.91R                  
GILLETTE       SUNNY     68  46  45 W8        29.85F                  
HULETT         PTSUNNY   70  45  40 W12G17    29.86S                  
NEWCASTLE      FAIR      72  41  33 NW14G23   29.84F                  

$$
WYZ014>020-022>026-101>103-250000-
...CENTRAL WYOMING...
  
CITY           SKY/WX    TMP DP  RH WIND       PRES   REMARKS
BIG PINEY      PTSUNNY   65  31  28 W13       30.04F                  
PINEDALE       PTSUNNY   66  27  22 W14G28    30.05S                  
DUBOIS         CLOUDY    61  23  23 W16G31    29.99S                  
LANDER         MOSUNNY   71  25  17 NW16G28   29.89R                  
RIVERTON       PTSUNNY   77  25  14 W16G28    29.89R                  
CASPER         PTSUNNY   74  30  19 W16G24    29.87F                  
DOUGLAS        MOSUNNY   77  35  21 W17G29    29.87S                  

$$
WYZ021-027>030-104>119-250000-
...SOUTHERN WYOMING...
  
CITY           SKY/WX    TMP DP  RH WIND       PRES   REMARKS
EVANSTON       SUNNY     68  30  24 W25G37    30.08S                  
KEMMERER       SUNNY     66  28  24 W20G36    30.07F                  
FORT BRIDGER   NOT AVBL                                               
ROCK SPRINGS   MOSUNNY   71  24  17 W29G38    30.01S                  
DIXON          PTSUNNY   70  31  23 S18G30    30.05R                  
RAWLINS        PTSUNNY   69  28  21 W22G35    30.00F                  
SARATOGA       FAIR      70  32  24 SW18      30.04S                  
LARAMIE        PTSUNNY   68  32  26 W22G31    30.02F                  
CHEYENNE         N/A     75  36  24 MISG        N/A                   
TORRINGTON     MOSUNNY   81  30  15 W18G32    29.80S                  
PINE BLUFFS    FAIR      77  32  19 NW17      29.91S                  

$$